• In Moldova, Republic
  • List of Countries
  • For 7 days
  • Water Temperature
  • Satellite Maps
  • Weather Map
  • Weather Widgets
  • user-avatar
    Login

    Hourly Weather Gjirokaster

    Today, 23 July, Sunday

    Time Temperature Precipitation Wind Pressure Humidity
    00:00 +19°C° 0 mm 1 mps 654 mmHg 58%
    01:00 +19°C° 0 mm 1 mps 654 mmHg 58%
    02:00 +18°C° 0 mm 2 mps 654 mmHg 57%
    03:00 +18°C° 0 mm 2 mps 654 mmHg 57%
    04:00 +18°C° 0 mm 2 mps 654 mmHg 57%
    05:00 +19°C° 0 mm 2 mps 654 mmHg 53%
    06:00 +21°C° 0 mm 2 mps 654 mmHg 49%
    07:00 +24°C° 0 mm 2 mps 655 mmHg 46%
    08:00 +25°C° 0 mm 2 mps 655 mmHg 41%
    09:00 +27°C° 0 mm 2 mps 655 mmHg 37%
    10:00 +28°C° 0 mm 2 mps 656 mmHg 33%
    11:00 +29°C° 0 mm 2 mps 656 mmHg 32%
    12:00 +29°C° 0 mm 2 mps 656 mmHg 31%
    13:00 +30°C° 0 mm 3 mps 655 mmHg 30%
    14:00 +29°C° 0 mm 3 mps 655 mmHg 32%
    15:00 +29°C° 0 mm 2 mps 655 mmHg 34%
    16:00 +29°C° 0 mm 2 mps 654 mmHg 36%
    17:00 +26°C° 0 mm 2 mps 654 mmHg 43%
    18:00 +24°C° 0 mm 2 mps 653 mmHg 49%
    19:00 +22°C° 0 mm 1 mps 653 mmHg 56%
    20:00 +21°C° 0 mm 1 mps 653 mmHg 58%
    21:00 +20°C° 0 mm 1 mps 653 mmHg 60%
    22:00 +19°C° 0 mm 1 mps 653 mmHg 61%
    23:00 +19°C° 0 mm 1 mps 653 mmHg 62%

    Tomorrow, 24 July, Monday

    Time Temperature Precipitation Wind Pressure Humidity
    00:00 +19°C° 0 mm 1 mps 652 mmHg 62%
    01:00 +18°C° 0 mm 1 mps 652 mmHg 62%
    02:00 +17°C° 0 mm 2 mps 652 mmHg 61%
    03:00 +17°C° 0 mm 2 mps 651 mmHg 60%
    04:00 +16°C° 0 mm 2 mps 651 mmHg 59%
    05:00 +18°C° 0 mm 2 mps 651 mmHg 54%
    06:00 +21°C° 0 mm 1 mps 652 mmHg 49%
    07:00 +23°C° 0 mm 1 mps 652 mmHg 44%
    08:00 +25°C° 0 mm 1 mps 653 mmHg 38%
    09:00 +27°C° 0 mm 2 mps 653 mmHg 33%
    10:00 +28°C° 0 mm 2 mps 653 mmHg 28%
    11:00 +29°C° 0 mm 2 mps 653 mmHg 27%
    12:00 +30°C° 0 mm 2 mps 653 mmHg 25%
    13:00 +30°C° 0 mm 3 mps 652 mmHg 24%
    14:00 +30°C° 0 mm 3 mps 652 mmHg 26%
    15:00 +29°C° 0 mm 3 mps 651 mmHg 28%
    16:00 +29°C° 0 mm 3 mps 651 mmHg 30%
    17:00 +27°C° 0 mm 2 mps 650 mmHg 36%
    18:00 +24°C° 0 mm 2 mps 650 mmHg 43%
    19:00 +22°C° 0 mm 1 mps 649 mmHg 49%
    20:00 +20°C° 0 mm 2 mps 649 mmHg 52%
    21:00 +19°C° 0 mm 2 mps 649 mmHg 54%
    22:00 +18°C° 0 mm 3 mps 648 mmHg 56%
    23:00 +18°C° 0 mm 3 mps 648 mmHg 58%

    Day after tomorrow, 25 July, Tuesday

    Time Temperature Precipitation Wind Pressure Humidity
    00:00 +17°C° 0 mm 4 mps 648 mmHg 60%
    01:00 +17°C° 0 mm 4 mps 647 mmHg 62%
    02:00 +16°C° 0 mm 3 mps 647 mmHg 64%
    03:00 +16°C° 0 mm 3 mps 647 mmHg 67%
    04:00 +14°C° 0 mm 3 mps 647 mmHg 69%
    05:00 +16°C° 0 mm 2 mps 647 mmHg 68%
    06:00 +18°C° 0 mm 2 mps 647 mmHg 67%
    07:00 +19°C° 0 mm 2 mps 647 mmHg 66%
    08:00 +20°C° 0 mm 2 mps 648 mmHg 59%
    09:00 +22°C° 0 mm 3 mps 648 mmHg 52%
    10:00 +24°C° 0 mm 3 mps 648 mmHg 46%
    11:00 +23°C° 0 mm 4 mps 648 mmHg 43%
    12:00 +25°C° 0 mm 4 mps 648 mmHg 40%
    13:00 +25°C° 0 mm 4 mps 648 mmHg 37%
    14:00 +25°C° 0 mm 4 mps 648 mmHg 38%
    15:00 +23°C° 0 mm 4 mps 648 mmHg 40%
    16:00 +23°C° 0 mm 4 mps 647 mmHg 41%
    17:00 +21°C° 0 mm 3 mps 647 mmHg 48%
    18:00 +19°C° 0 mm 3 mps 647 mmHg 54%
    19:00 +17°C° 0 mm 2 mps 647 mmHg 61%
    20:00 +16°C° 0 mm 2 mps 647 mmHg 65%
    21:00 +16°C° 0 mm 2 mps 647 mmHg 70%
    22:00 +15°C° 0 mm 2 mps 646 mmHg 75%
    23:00 +14°C° 0 mm 2 mps 646 mmHg 78%

    26 July, Wednesday

    Time Temperature Precipitation Wind Pressure Humidity
    00:00 +14°C° 0 mm 2 mps 646 mmHg 81%
    01:00 +13°C° 0 mm 2 mps 646 mmHg 84%
    02:00 +13°C° 0 mm 2 mps 646 mmHg 85%
    03:00 +13°C° 0 mm 2 mps 646 mmHg 87%
    04:00 +12°C° 0 mm 2 mps 645 mmHg 88%
    05:00 +14°C° 0 mm 2 mps 646 mmHg 83%
    06:00 +15°C° 0 mm 2 mps 646 mmHg 78%
    07:00 +17°C° 0 mm 2 mps 647 mmHg 74%
    08:00 +18°C° 0 mm 2 mps 647 mmHg 66%
    09:00 +20°C° 0 mm 3 mps 648 mmHg 57%
    10:00 +21°C° 0 mm 3 mps 648 mmHg 49%
    11:00 +22°C° 0 mm 3 mps 648 mmHg 47%
    12:00 +22°C° 0 mm 3 mps 648 mmHg 44%
    13:00 +24°C° 0 mm 3 mps 648 mmHg 42%
    14:00 +22°C° 0 mm 3 mps 648 mmHg 43%
    15:00 +22°C° 0 mm 3 mps 648 mmHg 44%
    16:00 +21°C° 0 mm 3 mps 648 mmHg 45%
    17:00 +20°C° 0 mm 3 mps 647 mmHg 53%
    18:00 +18°C° 0 mm 3 mps 647 mmHg 61%
    19:00 +16°C° 0 mm 2 mps 647 mmHg 69%
    20:00 +15°C° 0.1 mm 2 mps 647 mmHg 74%
    21:00 +14°C° 0.1 mm 2 mps 647 mmHg 80%
    22:00 +14°C° 0.1 mm 2 mps 647 mmHg 85%
    23:00 +12°C° 0.2 mm 3 mps 647 mmHg 87%

    27 July, Thursday

    Time Temperature Precipitation Wind Pressure Humidity
    00:00 +12°C° 0.2 mm 3 mps 647 mmHg 90%
    01:00 +12°C° 0.2 mm 3 mps 647 mmHg 92%
    02:00 +12°C° 0.1 mm 3 mps 647 mmHg 92%
    03:00 +12°C° 0.1 mm 3 mps 647 mmHg 93%
    04:00 +11°C° 0.1 mm 3 mps 647 mmHg 93%
    05:00 +13°C° 0.1 mm 3 mps 647 mmHg 87%
    06:00 +14°C° 0.1 mm 3 mps 647 mmHg 81%
    07:00 +16°C° 0.1 mm 3 mps 648 mmHg 75%
    08:00 +17°C° 0.1 mm 3 mps 648 mmHg 69%
    09:00 +18°C° 0.1 mm 3 mps 649 mmHg 63%
    10:00 +20°C° 0.1 mm 3 mps 649 mmHg 57%
    11:00 +20°C° 0.5 mm 3 mps 649 mmHg 56%
    12:00 +20°C° 0.5 mm 3 mps 649 mmHg 55%
    13:00 +21°C° 0.5 mm 3 mps 649 mmHg 54%
    14:00 +20°C° 0.4 mm 3 mps 649 mmHg 53%
    15:00 +20°C° 0.4 mm 3 mps 649 mmHg 53%
    16:00 +20°C° 0.4 mm 2 mps 649 mmHg 52%
    17:00 +19°C° 0.1 mm 2 mps 649 mmHg 58%
    18:00 +17°C° 0.1 mm 2 mps 649 mmHg 64%
    19:00 +16°C° 0.1 mm 1 mps 648 mmHg 69%
    20:00 +15°C° 0.1 mm 1 mps 649 mmHg 73%
    21:00 +14°C° 0.1 mm 1 mps 649 mmHg 77%
    22:00 +13°C° 0.1 mm 1 mps 649 mmHg 81%
    23:00 +13°C° 0.1 mm 2 mps 649 mmHg 82%

    28 July, Friday

    Time Temperature Precipitation Wind Pressure Humidity
    00:00 +13°C° 0.1 mm 2 mps 649 mmHg 82%
    01:00 +12°C° 0.1 mm 2 mps 649 mmHg 83%
    02:00 +12°C° 0 mm 2 mps 649 mmHg 83%
    03:00 +12°C° 0 mm 2 mps 649 mmHg 82%
    04:00 +12°C° 0 mm 2 mps 649 mmHg 82%
    05:00 +13°C° 0 mm 2 mps 650 mmHg 76%
    06:00 +15°C° 0 mm 2 mps 650 mmHg 70%
    07:00 +17°C° 0 mm 2 mps 651 mmHg 64%
    08:00 +18°C° 0 mm 2 mps 651 mmHg 58%
    09:00 +20°C° 0 mm 2 mps 652 mmHg 52%
    10:00 +23°C° 0 mm 2 mps 652 mmHg 45%
    11:00 +22°C° 0.1 mm 3 mps 652 mmHg 44%
    12:00 +24°C° 0.1 mm 3 mps 652 mmHg 42%
    13:00 +25°C° 0.1 mm 4 mps 652 mmHg 41%
    14:00 +23°C° 0.2 mm 4 mps 652 mmHg 44%
    15:00 +22°C° 0.2 mm 4 mps 652 mmHg 48%
    16:00 +21°C° 0.2 mm 4 mps 652 mmHg 52%
    17:00 +20°C° 0.1 mm 4 mps 652 mmHg 56%
    18:00 +19°C° 0.1 mm 4 mps 652 mmHg 60%
    19:00 +17°C° 0.1 mm 4 mps 652 mmHg 65%
    20:00 +17°C° 0 mm 3 mps 652 mmHg 67%
    21:00 +16°C° 0 mm 3 mps 652 mmHg 69%
    22:00 +14°C° 0 mm 3 mps 652 mmHg 72%
    23:00 +14°C° 0 mm 3 mps 652 mmHg 72%
    Show more